TheGetRank SiteMap Page 1892
Home 1842 1843 1844 1845 1846 1847 1848 1849 1850 1851 1852 1853 1854 1855 1856 1857 1858 1859 1860 1861 1862 1863 1864 1865 1866 1867 1868 1869 1870 1871 1872 1873 1874 1875 1876 1877 1878 1879 1880 1881 1882 1883 1884 1885 1886 1887 1888 1889 1890 1891 1892 1893 1894 1895 1896 1897 1898 1899 1900 1901 1902 1903 1904 1905 1906 1907 1908 1909 1910 1911 1912 1913 1914 1915 1916 1917 1918 1919 1920 1921 1922 1923 1924 1925 1926 1927 1928 1929 1930 1931 1932 1933 1934 1935 1936 1937 1938 1939 1940 1941 1942
S.NO. Website Pagerank Alexa Rank Last Updated
1891000 vstats.dk 2 No Rank 2011-09-12 11:50:19
1891001 727373.ru 3 1661284 2011-08-17 22:19:45
1891002 vszfh.ch 3 13774809 2011-08-17 22:19:45
1891003 amberstone.blogdrive.com 0 9151 2011-09-19 14:14:32
1891004 laptopsoverview.com 0 16478964 2011-08-17 22:19:48
1891005 vsystems.com 0 No Rank 2011-09-09 22:01:55
1891006 vtgunsmiths.com 0 No Rank 2011-08-17 22:19:51
1891007 vtc.edu.hk 7 59273 2011-08-17 22:19:54
1891008 old.med.cooking-questions.org 0 No Rank 2011-08-17 22:19:57
1891009 ctgmc.org 4 No Rank 2011-08-17 22:19:57
1891010 yourbusinessfanpages.com 0 12760266 2011-08-17 22:20:03
1891011 vtip.org 8 No Rank 2011-08-17 22:20:08
1891012 vteconomy.com 3 No Rank 2011-08-17 22:20:10
1891013 vtic.vn 4 2713282 2011-08-17 22:20:12
1891014 stardoll.cooking-questions.org 0 No Rank 2011-08-17 22:20:13
1891015 asita.org 5 1028148 2011-08-17 22:20:13
1891016 vtcpa.org 4 16186540 2011-08-17 22:20:13
1891017 nirpc.org 6 7592823 2011-08-17 22:20:14
1891018 melmat.pl 2 21159969 2011-08-17 22:20:14
1891019 vtape.org 5 3451450 2011-08-17 22:20:18
1891020 vti2.com 4 24716362 2011-08-17 22:20:23
1891021 vticorp.com 4 No Rank 2011-08-17 22:20:24
1891022 go2.directoriolinks.info 0 2659159 2011-08-17 22:20:25
1891023 vtginc.com 3 572854 2011-09-14 11:22:11
1891024 vthawaii.com 5 2159721 2011-08-17 22:20:30
1891025 vtcomfortinnburlington.com 2 No Rank 2011-08-17 22:20:32
1891026 vteprovincia.altervista.org 3 526 2011-08-17 22:20:32
1891027 vtf.bl0gnetz.no-ip.info 0 1352 2011-08-17 22:20:32
1891028 vtagency.com 0 21724176 2011-08-17 22:20:33
1891029 vtinfo.com 4 3434220 2011-09-19 17:58:24
1891030 abhaa.com 0 167380 2011-08-17 22:20:35
1891031 vtstraveldirect.com 3 No Rank 2011-09-14 18:20:24
1891032 vtone.com 3 21837318 2011-08-17 22:20:38
1891033 vttax.com 1 No Rank 2011-08-17 22:20:39
1891034 kmp.co.jp 5 5760149 2011-08-17 22:20:40
1891035 vtsoft.com 4 13738506 2011-09-12 17:06:45
1891036 vtlc.org 2 No Rank 2011-08-17 22:20:44
1891037 huihui.de 1 No Rank 2011-08-17 22:20:44
1891038 vtroom.com 4 14805548 2011-08-17 22:20:49
1891039 mafmc.org 6 14715797 2011-08-17 22:20:49
1891040 n2cms.com 4 322012 2011-08-17 22:20:50
1891041 vtk.com.hk 3 8862645 2011-08-17 22:20:51
1891042 vtu.ac.in 7 47468 2011-08-17 22:20:51
1891043 vtsc.net 2 No Rank 2011-08-17 22:20:54
1891044 vtmicrobusiness.org 3 No Rank 2011-08-17 22:20:59
1891045 vtsoccercamp.com 3 No Rank 2011-08-17 22:20:59
1891046 vtour.by 3 815831 2011-08-17 22:20:59
1891047 salli.com 4 2561053 2011-08-17 22:21:04
1891048 hl7.com.au 4 2155260 2011-08-17 22:21:06
1891049 vtjazz.org 4 8418913 2011-08-17 22:21:07
1891050 promosi.indonesianforum.net 0 48306 2011-08-17 22:21:09
1891051 vtour.dk 3 14551780 2011-08-17 22:21:10
1891052 u.facebookloot.rickywattsonline.com 0 1622536 2011-08-17 22:21:15
1891053 whowhere.amberstone.blogdrive.com 0 9151 2011-09-11 00:28:04
1891054 vuea.de 2 No Rank 2011-08-17 22:21:24
1891055 vttuner.com 1 No Rank 2011-09-19 14:43:30
1891056 duswimming.co.uk 2 No Rank 2011-08-17 22:21:27
1891057 kad1r.com 3 1805691 2011-08-17 22:21:28
1891058 vtwindirectory.com 0 No Rank 2011-08-17 22:21:29
1891059 vtvsba.org 4 23203095 2011-08-17 22:21:30
1891060 vty.com 1 No Rank 2011-08-17 22:21:33
1891061 vudutuu.com 0 No Rank 2011-08-17 22:21:37
1891062 vuiveti.com 0 29427272 2011-08-17 22:21:43
1891063 aaaweb.gr 2 2611949 2011-08-17 22:21:50
1891064 vukovar.hr 5 1361016 2011-08-17 22:21:50
1891065 vulcan800.de 1 No Rank 2011-08-17 22:21:52
1891066 vulcan.lt 5 522686 2011-08-17 22:21:58
1891067 vtz.ru 4 12960099 2011-08-17 22:21:58
1891068 vuchv.sk 5 21265532 2011-08-17 22:22:00
1891069 coralclub.info 1 909678 2011-08-17 22:22:04
1891070 vuontho.com 3 19019009 2011-08-17 22:22:05
1891071 vulcanwoodproducts.com 1 No Rank 2011-08-17 22:22:09
1891072 vulnerable.org.uk 0 22580161 2011-08-17 22:22:10
1891073 vulis-archives.com 4 No Rank 2011-08-17 22:22:11
1891074 buildhugeincome.co.uk 0 No Rank 2011-08-17 22:22:14
1891075 vulpes.org 4 No Rank 2011-08-17 22:22:14
1891076 travel-fit.co.uk 2 No Rank 2011-08-17 22:22:16
1891077 vunet.org 3 3250000 2011-08-17 22:22:17
1891078 vulgu.com 0 No Rank 2011-09-11 22:42:32
1891079 vundo-removal.com 2 11740626 2011-08-17 22:22:27
1891080 cbs.or.jp 5 1577875 2011-08-17 22:22:28
1891081 vulnwatch.org 0 2773680 2011-08-17 22:22:30
1891082 fungeo.de 4 2601482 2011-08-17 22:22:30
1891083 mybloodpressuremonitors.com 0 1706507 2011-08-17 22:22:30
1891084 ndo.co.uk 5 443671 2011-08-17 22:22:32
1891085 vulg.praga-sex.info 0 No Rank 2011-08-17 22:22:34
1891086 blog.live.makemypcfastreview.com 0 671876 2011-08-17 22:22:39
1891087 vulgarvideo.com 2 No Rank 2011-08-17 22:22:39
1891088 vuso.com.ua 3 27104064 2011-08-17 22:22:42
1891089 dmiracle.com 4 107995 2011-08-17 22:22:43
1891090 sjtfd.com 1 No Rank 2011-08-17 22:22:46
1891091 vvdesign.com 2 14115783 2011-08-17 22:22:47
1891092 vusudewi.angelfire.com 0 1475 2011-08-17 22:22:47
1891093 vuz.com.ua 3 No Rank 2011-08-17 22:22:51
1891094 iecex.com 6 5220134 2011-08-17 22:22:52
1891095 vv.com 0 1512283 2011-09-19 17:08:02
1891096 store1.live.makemypcfastreview.com 0 671876 2011-08-17 22:22:55
1891097 eu-ri.com 4 8649049 2011-08-17 22:23:05
1891098 vv.lt 4 1644266 2011-08-17 22:23:05
1891099 hlage.com 2 No Rank 2011-08-17 22:23:09
1891100 vvacalsc.com 4 11143864 2011-08-17 22:23:09
1891101 vupoint.com 1 No Rank 2011-08-17 22:23:11
1891102 sixxs.net 6 198079 2011-08-17 22:23:11
1891103 vurup.sk 4 4573218 2011-08-17 22:23:12
1891104 vvbc.com 0 19619785 2011-08-17 22:23:16
1891105 vuzzer.com 0 No Rank 2011-08-17 22:23:18
1891106 vusic.com 3 809973 2011-08-17 22:23:20
1891107 ebhav.com 0 8920345 2011-09-19 18:07:48
1891108 vv.uka.ru 5 553901 2011-09-14 17:48:16
1891109 vvgh.com 0 No Rank 2011-08-17 22:23:26
1891110 vvvf.net 0 14889270 2011-08-17 22:23:26
1891111 vvhand.com 1 11877665 2011-08-17 22:23:33
1891112 vvsho.nl 2 No Rank 2011-08-17 22:23:37
1891113 vvf.com 5 1757924 2011-08-17 22:23:37
1891114 vvsy2k.hypermart.net 0 14555 2011-08-17 22:23:41
1891115 vvoj.nl 5 3599833 2011-08-17 22:23:43
1891116 vw-service.de 5 5902087 2011-08-17 22:23:43
1891117 vvmvd.ru 4 1997636 2011-08-17 22:23:46
1891118 vvprintland.com 1 No Rank 2011-08-17 22:23:47
1891119 vwaction.co.uk 0 7777045 2011-08-17 22:23:48
1891120 vvemst.nl 1 No Rank 2011-08-17 22:23:50
1891121 vvvzuidlimburg.nl 5 745608 2011-08-17 22:24:03
1891122 vwbank.pl 5 190904 2011-08-17 22:24:08
1891123 vvsi.se 5 17530535 2011-08-17 22:24:08
1891124 vwdhosting.net 3 5664704 2011-08-17 22:24:09
1891125 vworm.com 0 No Rank 2011-08-17 22:24:20
1891126 vwmc.com 2 11639004 2011-08-17 22:24:25
1891127 vwerks.com 1 No Rank 2011-08-17 22:24:25
1891128 vwusa.com 1 2427928 2011-08-17 22:24:31
1891129 vwcom.net 2 946521 2011-08-17 22:24:33
1891130 vwboys.com 3 10085150 2011-08-17 22:24:34
1891131 vxc.eu 0 No Rank 2011-08-17 22:24:36
1891132 vwit.org 1 No Rank 2011-08-17 22:24:42
1891133 vwatx.com 0 No Rank 2011-08-17 22:24:42
1891134 ku.com.au 5 1863958 2011-08-17 22:24:42
1891135 vwforum.ro 2 81702 2011-08-17 22:24:52
1891136 vya.net 0 No Rank 2011-09-15 09:01:02
1891137 vxitech.com 5 No Rank 2011-08-17 22:24:55
1891138 vybezalliance.com 1 No Rank 2011-08-17 22:24:56
1891139 vystar.net 4 No Rank 2011-08-17 22:24:57
1891140 vynecrest.com 4 9596088 2011-08-17 22:25:00
1891141 fidisk.fi 4 1161051 2011-08-17 22:25:04
1891142 vxz.net 0 No Rank 2011-08-17 22:25:04
1891143 afcab.org 4 No Rank 2011-08-17 22:25:05
1891144 leannecanty.com 2 23670638 2011-08-17 22:25:08
1891145 vyhladavac.sk 0 7002 2011-08-17 22:25:08
1891146 vystarcreditunion.com 4 No Rank 2011-08-17 22:25:10
1891147 vy.splinder.com 2 No Rank 2011-08-17 22:25:11
1891148 vwcalimports.com 0 236036 2011-09-10 00:17:31
1891149 vycc.org 5 4290792 2011-08-17 22:25:22
1891150 vybormechtu.ru 0 No Rank 2011-08-17 22:25:23
1891151 vysokovskiy.ru 3 543188 2011-08-17 22:25:25
1891152 vydac.com 6 No Rank 2011-08-17 22:25:27
1891153 vyom-intl.com 0 No Rank 2011-08-17 22:25:29
1891154 w-o-w.com 3 760426 2011-08-17 22:25:32
1891155 vzk-wezep.nl 2 No Rank 2011-08-17 22:25:35
1891156 vzwcorp.com 0 647221 2011-08-17 22:25:36
1891157 w-grp.com 0 5688324 2011-09-11 16:20:10
1891158 vzwpixplace.com 0 No Rank 2011-08-17 22:25:41
1891159 w-c-c-a.org 3 No Rank 2011-08-17 22:25:42
1891160 5page.com 0 3105549 2011-09-12 16:09:17
1891161 vzwrentinternational.com 4 No Rank 2011-09-12 17:13:53
1891162 w-interiors.com 0 21527547 2011-08-17 22:25:59
1891163 popup-tent.org 0 25288075 2011-08-17 22:26:01
1891164 vzb.de 5 1124401 2011-08-17 22:26:03
1891165 joxue.com 4 565527 2011-09-19 17:44:10
1891166 vytech.com 0 No Rank 2011-08-17 22:26:07
1891167 bghot.com 3 2441302 2011-08-17 22:26:08
1891168 vzw.com 8 498 2011-08-17 22:26:08
1891169 mmcog.com 3 1914149 2011-08-17 22:26:10
1891170 music.live.makemypcfastreview.com 0 671876 2011-08-17 22:26:19
1891171 w1.loxa.com.tw 0 96517 2011-09-16 14:14:32
1891172 mideastnews.fyiag.com 0 No Rank 2011-08-17 22:26:22
1891173 w1.1983.telia.com 0 61142 2011-08-17 22:26:25
1891174 w105.com 1 16683524 2011-08-17 22:26:28
1891175 w0o0w.com 0 No Rank 2011-08-17 22:26:36
1891176 w0d0.de 0 No Rank 2011-08-17 22:26:37
1891177 w00t.net 0 24450493 2011-09-17 17:31:56
1891178 w-software.com 3 214005 2011-08-17 22:26:37
1891179 w12.picnest.com 0 17782057 2011-08-17 22:26:38
1891180 w-ouen.com 5 5388559 2011-08-17 22:26:41
1891181 w-vision.com 2 No Rank 2011-08-17 22:26:42
1891182 symed.net 2 No Rank 2011-08-17 22:26:53
1891183 blumen.de 3 707947 2011-08-17 22:26:58
1891184 sa7re.com 0 238053 2011-08-17 22:26:58
1891185 vzwhub.com 0 No Rank 2011-09-19 17:13:45
1891186 theroulettesniper.net 0 No Rank 2011-08-17 22:27:04
1891187 nhacviet.cooking-questions.org 0 No Rank 2011-08-17 22:27:05
1891188 w1w1w1.com 0 No Rank 2011-08-17 22:27:09
1891189 w1office.com 5 571221 2011-08-17 22:27:10
1891190 w2gi.com 0 29292 2011-08-17 22:27:12
1891191 pghot.com 0 30111744 2011-08-17 22:27:17
1891192 w3c.es 8 141858 2011-08-17 22:27:22
1891193 w3cschools.com 0 609551 2011-08-17 22:27:24
1891194 w3csoft.com 0 No Rank 2011-08-17 22:27:25
1891195 nnl.co.uk 5 8785588 2011-08-17 22:27:26
1891196 w3-4u.de 2 1884263 2011-08-17 22:27:27
1891197 w2.avis.ne.jp 6 72147 2011-08-17 22:27:28
1891198 w30.ir 2 13950917 2011-08-17 22:27:34
1891199 w3cwc.org 3 No Rank 2011-08-17 22:27:37
1891200 ncl.co.uk 5 668582 2011-08-17 22:27:39
1891201 w3.eprat.com 0 No Rank 2011-09-11 00:11:40
1891202 w3.sc2000.net 2 14122522 2011-08-17 22:27:44
1891203 w3.trib.com 0 99975 2011-08-17 22:27:44
1891204 dynazu.com 0 No Rank 2011-08-17 22:27:45
1891205 awctc.org 5 23789225 2011-08-17 22:27:45
1891206 w3.siemens.de 0 4763 2011-08-17 22:27:46
1891207 w3ad.eu 0 No Rank 2011-08-17 22:27:53
1891208 w6.net 4 10966703 2011-08-17 22:27:56
1891209 w3hol.blogspot.com 0 No Rank 2011-08-17 22:28:00
1891210 w3oood.com 2 220522 2011-09-12 18:06:21
1891211 w3m.com 2 7135016 2011-08-17 22:28:02
1891212 aldil.org 6 5106832 2011-08-17 22:28:09
1891213 dfw.co.uk 2 No Rank 2011-08-17 22:28:13
1891214 w5d.de 3 1516531 2011-08-17 22:28:14
1891215 lietu.com 2 256976 2011-08-17 22:28:15
1891216 w3m.org 5 8521973 2011-08-17 22:28:16
1891217 hermosabeachgaragedoorrepair.com 0 No Rank 2011-08-17 22:28:16
1891218 w3mh.co.uk 3 10737604 2011-08-17 22:28:23
1891219 w3w.plentyoffish.com 0 292 2011-08-17 22:28:24
1891220 w3schools.org 5 487345 2011-08-17 22:28:24
1891221 w3shuttle.com 2 No Rank 2011-08-17 22:28:27
1891222 w4gs.org 3 13361070 2011-08-17 22:28:28
1891223 wa6an.net 1 13814400 2011-08-17 22:28:34
1891224 waao.com 4 21173617 2011-08-17 22:28:40
1891225 waarealtor.com 2 5249422 2011-08-17 22:28:44
1891226 metainformatix.com 0 4195879 2011-08-17 22:28:47
1891227 ice24.com 0 No Rank 2011-08-17 22:28:49
1891228 2sexy.com 0 26538101 2011-08-17 22:28:51
1891229 wa-wa.com 4 8485316 2011-09-18 02:56:34
1891230 boyboy.ws 0 No Rank 2011-08-17 22:28:55
1891231 hiddenhillsgaragedoorrepair.com 0 No Rank 2011-08-17 22:28:55
1891232 wa-emp.com 4 4225101 2011-08-17 22:28:56
1891233 freehealthinformation.net 1 1572205 2011-08-17 22:28:57
1891234 w6jw.org 3 No Rank 2011-08-17 22:28:57
1891235 waaccc.org 4 10892442 2011-09-19 12:07:19
1891236 qs100.com 4 787228 2011-08-17 22:29:03
1891237 wa-shoos.com 2 No Rank 2011-08-17 22:29:05
1891238 waag.net 3 No Rank 2011-08-17 22:29:05
1891239 waalker.com 1 12013007 2011-08-17 22:29:06
1891240 w6666.com 1 No Rank 2011-09-18 05:09:59
1891241 w9f.com 0 No Rank 2011-09-10 11:38:50
1891242 w78cms.com 3 456388 2011-08-17 22:29:11
1891243 tarsan.jp 3 2073890 2011-08-17 22:29:14
1891244 paydayloanamerica.net 0 1747745 2011-08-17 22:29:16
1891245 fidis.net 6 3712031 2011-08-17 22:29:16
1891246 waarmaarraar.nl 4 35347 2011-08-17 22:29:16
1891247 expatsrental.com 1 8954806 2011-08-17 22:29:18
1891248 wa2.e-golf.co.jp 5 57865 2011-08-17 22:29:20
1891249 sanke.com 3 No Rank 2011-08-17 22:29:21
1891250 wa-2.ru 3 4178113 2011-08-17 22:29:23
1891251 wabusol.angelfire.com 0 1475 2011-08-17 22:29:26
1891252 gwmep.com 2 No Rank 2011-08-17 22:29:28
1891253 wachoiva.com 0 No Rank 2011-08-17 22:29:29
1891254 96990.com 4 814560 2011-08-17 22:29:33
1891255 wack.com 0 22145110 2011-09-12 21:15:57
1891256 wabe.com 3 12117716 2011-09-10 00:47:15
1891257 srj.co.jp 3 5404019 2011-08-17 22:29:39
1891258 wacdl.com 3 No Rank 2011-08-17 22:29:40
1891259 cki.au.dk 5 67360 2011-08-17 22:29:42
1891260 waaseet.com 2 27875997 2011-08-17 22:29:42
1891261 cb-el-secreto.blogspot.com 0 No Rank 2011-08-17 22:29:51
1891262 w2.amiens.com 5 788270 2011-08-17 22:29:53
1891263 bbs.cooking-questions.org 0 No Rank 2011-08-17 22:29:54
1891264 waca.com 5 16113120 2011-08-17 22:29:55
1891265 wabre.org 5 7224224 2011-08-17 22:30:01
1891266 waccorp.com 4 24934067 2011-08-17 22:30:05
1891267 avita.org 5 10966765 2011-08-17 22:30:10
1891268 wacker1.com 3 4462774 2011-08-17 22:30:14
1891269 wackyarcade.com 0 No Rank 2011-08-17 22:30:16
1891270 wacocommunityvisioning.com 3 No Rank 2011-08-17 22:30:17
1891271 whowhere.live.makemypcfastreview.com 0 671876 2011-08-17 22:30:20
1891272 wacomeng.com 5 4478693 2011-08-17 22:30:20
1891273 waders.de 0 No Rank 2011-08-17 22:30:23
1891274 qindex.de 4 212327 2011-08-17 22:30:25
1891275 wadden.nl 5 1403646 2011-08-17 22:30:28
1891276 wacops.org 3 22877315 2011-08-17 22:30:30
1891277 wacku.com 0 No Rank 2011-08-17 22:30:41
1891278 wacoal.com.sg 3 9867368 2011-08-17 22:30:47
1891279 wackyhq.com 2 14883978 2011-08-17 22:30:48
1891280 wacoboom.com 2 No Rank 2011-08-17 22:30:54
1891281 waenssp.co.uk 0 No Rank 2011-09-19 08:41:23
1891282 x2cms.com 4 1783314 2011-08-17 22:30:57
1891283 waddenzee.nl 6 4220892 2011-08-17 22:30:58
1891284 wadio.org 0 8049533 2011-08-17 22:30:59
1891285 wadirum.net 4 29303663 2011-08-17 22:31:03
1891286 wafu.org 0 No Rank 2011-09-18 08:28:04
1891287 fidic.org 6 1387067 2011-08-17 22:31:12
1891288 wadi.com 1 No Rank 2011-08-17 22:31:15
1891289 waflernursery.com 4 15095736 2011-08-17 22:31:17
1891290 wafex.com.au 4 11026042 2011-08-17 22:31:17
1891291 max.live.makemypcfastreview.com 0 671876 2011-08-17 22:31:17
1891292 waeco1.com 2 No Rank 2011-08-17 22:31:18
1891293 wadsworthmedia.com 0 1038512 2011-09-19 18:05:29
1891294 foxoo.net 3 No Rank 2011-08-17 22:31:30
1891295 waenglishschool.com 2 No Rank 2011-08-17 22:31:31
1891296 wagbags.com 2 No Rank 2011-09-18 23:26:56
1891297 waffe.de 0 No Rank 2011-08-17 22:31:33
1891298 homepager.tripod.treverrlhunt.blogdrive.com 0 9151 2011-09-18 05:42:58
1891299 wagamachi.com 5 769964 2011-08-17 22:31:38
1891300 ekzay.com 0 12243422 2011-08-17 22:31:38
1891301 1y.com.cn 5 14799210 2011-08-17 22:31:39
1891302 wagne.net 4 1476834 2011-08-17 22:31:40
1891303 waes.ac.uk 4 1480615 2011-08-17 22:31:41
1891304 1426.info 4 No Rank 2011-08-17 22:31:42
1891305 wagaciezka.com 4 411547 2011-08-17 22:31:46
1891306 qing6.com 5 519528 2011-09-12 21:08:58
1891307 wagablog.com 2 920920 2011-08-17 22:31:47
1891308 wagon1.com 2 No Rank 2011-08-17 22:31:47
1891309 waggy-tails.com 2 No Rank 2011-08-17 22:31:58
1891310 howtogetpregnantfast.commissionmagnets.com 0 21636 2011-08-17 22:32:00
1891311 wagertonight.com 2 No Rank 2011-08-17 22:32:01
1891312 huihao.cn 3 No Rank 2011-08-17 22:32:02
1891313 huntingtonparkgaragedoorrepair.com 0 No Rank 2011-08-17 22:32:03
1891314 wagalipa.blogspot.com 0 No Rank 2011-08-17 22:32:05
1891315 wagamachigenki.jp 5 No Rank 2011-08-17 22:32:08
1891316 healthrotate.com 2 7770115 2011-08-17 22:32:08
1891317 waginteractive.fr 4 1255891 2011-08-17 22:32:09
1891318 wagonwheelantiques.us 2 No Rank 2011-08-17 22:32:09
1891319 wagonwheelinn.com 2 8870870 2011-08-17 22:32:10
1891320 waggr.com 2 No Rank 2011-08-17 22:32:13
1891321 wagang.econ.hc.keio.ac.jp 4 6847 2011-08-17 22:32:15
1891322 twobig.net 0 No Rank 2011-09-12 11:29:50
1891323 wahnam.com.au 2 No Rank 2011-08-17 22:32:25
1891324 wagrowiec.top-ogloszenia.com 0 564379 2011-08-17 22:32:28
1891325 wahatalarab.com 2 2106168 2011-08-17 22:32:31
1891326 wahat.net 0 No Rank 2011-09-11 22:11:15
1891327 posadarincontachirense.com 2 14194401 2011-08-17 22:32:34
1891328 wahmteam.com 3 2247180 2011-08-17 22:32:36
1891329 wahoo.ne.us 4 4440689 2011-08-17 22:32:37
1891330 waha-hockey.com 4 10634568 2011-08-17 22:32:43
1891331 wahlstrom-i.com 0 No Rank 2011-08-17 22:32:43
1891332 axcent.se 4 12644526 2011-08-17 22:32:54
1891333 bsanc.org 3 14600807 2011-08-17 22:32:54
1891334 wagov.com 3 No Rank 2011-09-13 19:40:13
1891335 wagonwheelvillage.com 4 13345130 2011-08-17 22:32:57
1891336 wahha.com 3 11787034 2011-08-17 22:32:58
1891337 wahmnaps.com 1 19859371 2011-08-17 22:32:59
1891338 wahju.com 0 3035810 2011-09-11 17:45:10
1891339 wahrig.de 5 No Rank 2011-08-17 22:33:00
1891340 wahaha.net 2 7982345 2011-08-17 22:33:00
1891341 tu.directoriolinks.info 0 2659159 2011-08-17 22:33:02
1891342 wahikan.com 2 No Rank 2011-08-17 22:33:04
1891343 bereg.net 4 838881 2011-08-17 22:33:04
1891344 wahyan.org 0 No Rank 2011-08-17 22:33:05
1891345 alsoj.com 3 27245786 2011-08-17 22:33:15
1891346 waif883.org 4 9930107 2011-08-17 22:33:17
1891347 wainhouse.com 4 574456 2011-08-17 22:33:17
1891348 wailan.com 0 No Rank 2011-08-17 22:33:27
1891349 wainsoft.com 4 238629 2011-08-17 22:33:39
1891350 waistmanagement.com 0 No Rank 2011-08-17 22:33:40
1891351 wakatake.com 2 No Rank 2011-08-17 22:33:50
1891352 waka-m.com 0 No Rank 2011-08-17 22:33:52
1891353 waka-laka.com 0 No Rank 2011-09-13 18:44:15
1891354 wajk.com 4 7997818 2011-08-17 22:33:54
1891355 wajima-wajima.com 2 No Rank 2011-08-17 22:34:09
1891356 wakagaeri.com 3 5338189 2011-08-17 22:34:11
1891357 waitingforagnes.com 0 24807207 2011-08-17 22:34:12
1891358 wakatake21.com 2 No Rank 2011-08-17 22:34:15
1891359 waitecpa.com 2 8526367 2011-08-17 22:34:16
1891360 wakate.com 3 9425830 2011-08-17 22:34:24
1891361 abweb.com.au 4 8217085 2011-08-17 22:34:25
1891362 wak-art.com 3 8618392 2011-08-17 22:34:27
1891363 wajr.com 4 3240498 2011-08-17 22:34:28
1891364 wakefieldwildcats.co.uk 4 2013226 2011-08-17 22:34:34
1891365 wakepoint.com 2 No Rank 2011-08-17 22:34:38
1891366 wakiaiai.com 3 9753631 2011-08-17 22:34:40
1891367 wakitamotel.com 0 No Rank 2011-08-17 22:34:46
1891368 allguu.ru 0 1738734 2011-08-17 22:34:48
1891369 audiobookee.blogspot.com 0 No Rank 2011-08-17 22:34:49
1891370 wako-desu.com 2 1369166 2011-08-17 22:34:50
1891371 wakeminster.org 2 No Rank 2011-08-17 22:34:53
1891372 wakeupcallradio.org 3 24563456 2011-08-17 22:34:58
1891373 wakestock.com 5 1305253 2011-08-17 22:35:05
1891374 wakeupindia.com 0 No Rank 2011-08-17 22:35:08
1891375 wako-fikeda.it 4 No Rank 2011-08-17 22:35:08
1891376 wakovia.com 0 9530139 2011-08-17 22:35:09
1891377 wakefield.co.uk 3 3721390 2011-08-17 22:35:12
1891378 juegobomberman.com 0 No Rank 2011-08-17 22:35:20
1891379 waldenco.com 2 No Rank 2011-08-17 22:35:27
1891380 walcz.top-ogloszenia.net 1 122576 2011-09-12 15:36:58
1891381 wakuwakuwork.com 2 665125 2011-08-17 22:35:41
1891382 admart.ca 0 480325 2011-09-10 19:37:21
1891383 wal-lab.com 5 22877332 2011-08-17 22:35:47
1891384 wakuwaku-s.com 3 4258839 2011-08-17 22:35:49
1891385 abdio.com 4 504102 2011-08-17 22:35:49
1891386 wakr.net 4 9926640 2011-08-17 22:35:49
1891387 walden-pond.net 2 No Rank 2011-08-17 22:35:49
1891388 waku2usj.com 4 9884990 2011-08-17 22:35:50
1891389 wal-greens.com 7 23456771 2011-08-17 22:35:53
1891390 waldenuniversity.com 1 24563470 2011-08-17 22:35:57
1891391 point.directoriolinks.info 0 2659159 2011-08-17 22:35:58
1891392 walgreenespanol.com 0 No Rank 2011-09-19 09:56:52
1891393 hourpaydayloan.net 0 2230963 2011-08-17 22:36:18
1891394 walhalla.ru 0 No Rank 2011-08-17 22:36:23
1891395 walgreenes.com 0 No Rank 2011-08-17 22:36:26
1891396 waldocooneyspizza.com 3 5610119 2011-08-17 22:36:29
1891397 waldnet.nl 3 209858 2011-08-17 22:36:30
1891398 waldorf.nu 3 No Rank 2011-08-17 22:36:32
1891399 walfadia.info 0 No Rank 2011-08-17 22:36:33
1891400 anapa.org 3 No Rank 2011-08-17 22:36:36
1891401 walkergroup.com 3 16271665 2011-09-09 20:35:05
1891402 9fingers.no 3 No Rank 2011-08-17 22:36:39
1891403 walkcarmarthenshire.com 2 19553715 2011-08-17 22:36:40
1891404 waldner.nl 3 1998993 2011-08-17 22:36:40
1891405 walkera.com.cn 0 No Rank 2011-08-17 22:36:42
1891406 boss302.net 0 No Rank 2011-08-17 22:36:43
1891407 walkabyebaby.com 0 21212067 2011-08-17 22:36:48
1891408 agelis.ru 0 No Rank 2011-08-17 22:36:55
1891409 walkerbaystore.com 0 No Rank 2011-08-17 22:36:56
1891410 walkerrealty.com 0 No Rank 2011-09-12 11:18:24
1891411 walika.com 1 No Rank 2011-08-17 22:36:58
1891412 walkercountymessenger.com 1 No Rank 2011-08-17 22:37:00
1891413 walk-through-metal-detector.com 1 14780467 2011-08-17 22:37:03
1891414 walkerldjscientific.com 0 No Rank 2011-09-19 11:57:01
1891415 walk-on.co.at 4 20826409 2011-08-17 22:37:09
1891416 022aa.com 4 3520727 2011-08-17 22:37:12
1891417 walkenfanclub.com 0 No Rank 2011-08-17 22:37:13
1891418 wali.org 4 14098768 2011-08-17 22:37:14
1891419 walk.prisonwall.org 5 8908219 2011-08-17 22:37:17
1891420 walkerrvcenter.com 0 15603058 2011-09-19 17:21:35
1891421 gujuji.tk 0 No Rank 2011-08-17 22:37:40
1891422 tuexitonline.com 0 1821751 2011-08-17 22:37:43
1891423 walkfitorthotics.com 0 No Rank 2011-08-17 22:37:46
1891424 skullcandyriot.com 0 No Rank 2011-08-17 22:37:55
1891425 wallacenissan.com 0 6451681 2011-08-17 22:38:00
1891426 walkz.com 3 27195315 2011-08-17 22:38:01
1891427 wallace.vaila.net 0 No Rank 2011-09-12 13:36:10
1891428 01809.com 1 1846785 2011-08-17 22:38:12
1891429 aflax.org 4 5181721 2011-08-17 22:38:13
1891430 wallace.tsx.org 0 27371758 2011-09-12 00:52:27
1891431 wallet.ws 0 No Rank 2011-08-17 22:38:42
1891432 wallingfordconnecticut.us 0 No Rank 2011-08-17 22:38:43
1891433 wallgreens.com 0 No Rank 2011-08-17 22:38:48
1891434 wallingfords.com 3 14682489 2011-08-17 22:38:48
1891435 wallerbears.com 2 4362375 2011-08-17 22:38:54
1891436 wallingfordcoffee.com 3 15214519 2011-08-17 22:38:56
1891437 wallen-antennae.co.uk 2 No Rank 2011-08-17 22:38:58
1891438 walledlakecentral.com 2 No Rank 2011-08-17 22:38:58
1891439 womensmonclerjacket.com 0 No Rank 2011-08-17 22:39:01
1891440 wallfountain.selldiscountnow.info 0 No Rank 2011-08-17 22:39:01
1891441 wallillusions.com 0 25237517 2011-08-17 22:39:12
1891442 wallisenergy.com 1 No Rank 2011-08-17 22:39:13
1891443 adidassuperstar35th.com 0 No Rank 2011-08-17 22:39:14
1891444 adidascampus.net 0 No Rank 2011-08-17 22:39:14
1891445 wallpaperfreebee.com 0 No Rank 2011-08-17 22:39:17
1891446 wallpaper-area.com 0 22082578 2011-08-17 22:39:31
1891447 wallpaper4.us 0 10967611 2011-08-17 22:39:35
1891448 wallp.ru 1 2827884 2011-08-17 22:39:35
1891449 wallpaperborderdirectory.com 0 No Rank 2011-08-17 22:39:37
1891450 paulgriffinpetty.com 2 No Rank 2011-08-17 22:39:37
1891451 wallpaper-nation.com 0 No Rank 2011-08-17 22:39:39
1891452 wallpaperfishtalk.com 0 15998743 2011-08-17 22:39:41
1891453 wallpaperstars.com 0 No Rank 2011-08-17 22:39:50
1891454 best-cityville-guide.blogspot.com 0 No Rank 2011-08-17 22:39:54
1891455 wallpaperstoiphone.com 0 No Rank 2011-08-17 22:39:56
1891456 skullcandyearbud.com 0 30192802 2011-08-17 22:40:01
1891457 wallpaperstar.com 2 22145138 2011-08-17 22:40:03
1891458 wallpapernerd.com 0 27962952 2011-09-12 00:01:42
1891459 wallpaperofwomen.com 0 13489298 2011-08-17 22:40:16
1891460 wallpapersdb.com 1 151662 2011-08-17 22:40:19
1891461 dogtrainingdays.com 0 No Rank 2011-08-17 22:40:22
1891462 wallpaperreview.com 3 5880546 2011-08-17 22:40:22
1891463 commission-central.set.music-software-review.com 0 1049361 2011-08-17 22:40:28
1891464 wallpapervine.com 1 No Rank 2011-08-17 22:40:32
1891465 wallstreetsystems.com 5 868550 2011-08-17 22:40:37
1891466 wallstreetdex.com 2 No Rank 2011-08-17 22:40:44
1891467 cedicu.nl 3 14546930 2011-08-17 22:40:51
1891468 wallukat.com 2 No Rank 2011-08-17 22:40:53
1891469 wallstreetlist.com 2 25837931 2011-08-17 22:41:04
1891470 walmartsurvey.com 0 24015740 2011-09-11 18:13:29
1891471 walmartcredicard.com 0 No Rank 2011-09-18 03:28:20
1891472 walmartmybenifits.com 0 No Rank 2011-09-19 02:03:01
1891473 chonlatid-electronic-products.tk 0 No Rank 2011-08-17 22:41:16
1891474 walmaret.com 0 No Rank 2011-08-17 22:41:21
1891475 walmaer.com 0 No Rank 2011-08-17 22:41:21
1891476 walmartdistribution.com 0 23391378 2011-08-17 22:41:27
1891477 walmartbenifit.com 0 No Rank 2011-08-17 22:41:28
1891478 walmate.com 0 No Rank 2011-08-17 22:41:34
1891479 walmart.co.uk 0 No Rank 2011-08-17 22:41:34
1891480 walmarrt.com 0 4784715 2011-08-17 22:41:37
1891481 walmartlocator.com 3 No Rank 2011-08-17 22:41:37
1891482 walowski.com 3 No Rank 2011-08-17 22:41:44
1891483 walter.kessinger.com 4 12188599 2011-09-10 08:29:09
1891484 walsmith.com 3 No Rank 2011-08-17 22:42:06
1891485 come2flirt.in 0 2723101 2011-08-17 22:42:11
1891486 waltdineyworld.com 0 No Rank 2011-08-17 22:42:11
1891487 walter.com 4 1469276 2011-08-17 22:42:11
1891488 walnutdesign.com 0 No Rank 2011-08-17 22:42:13
1891489 walter.ba 3 No Rank 2011-08-17 22:42:15
1891490 extravisitors.com 2 2912203 2011-08-17 22:42:17
1891491 waltzmfg.com 3 No Rank 2011-08-17 22:42:27
1891492 opcfactorscam.com 0 No Rank 2011-08-17 22:42:30
1891493 waltershomeappliance.com 0 No Rank 2011-09-19 11:38:30
1891494 waltham.no 1 No Rank 2011-09-11 17:06:15
1891495 9ilogo.com 0 No Rank 2011-08-17 22:42:44
1891496 waloa.com 4 11248096 2011-09-19 15:44:38
1891497 walu.ch 4 766025 2011-08-17 22:42:46
1891498 modanliceltikli.com 5 14582872 2011-08-17 22:42:52
1891499 waltz.org.uk 0 No Rank 2011-08-17 22:42:54
1891500 waltham.com 6 2185890 2011-08-17 22:42:59
1891501 walton.eroticke-videa.info 0 25133805 2011-08-17 22:42:59
1891502 brownspotsonface.org 0 1813350 2011-08-17 22:43:06
1891503 wamproadrunners.tripod.com 0 659 2011-08-17 22:43:07
1891504 9manson.com 0 11026911 2011-08-17 22:43:12
1891505 wamb.com 2 18845573 2011-08-17 22:43:14
1891506 vw.com.cn 6 61379 2011-09-11 09:44:47
1891507 bestweightlossdietreview.net 0 No Rank 2011-08-17 22:43:16
1891508 wamper-hardcore.pl 1 22385506 2011-08-17 22:43:18
1891509 wandern-zypern.de 1 11160478 2011-08-17 22:43:53
1891510 wandshop.com 3 No Rank 2011-08-17 22:43:54
1891511 wanda.waw.pl 3 15099243 2011-08-17 22:43:54
1891512 wanbaoli.com 0 743535 2011-08-17 22:44:00
1891513 wanderleisilva.com 1 No Rank 2011-08-17 22:44:02
1891514 wandern-e1.de 4 12317774 2011-08-17 22:44:08
1891515 wanderstreet.diy5.com 3 6095495 2011-08-17 22:44:20
1891516 wang-li.com 5 1587339 2011-09-11 20:47:30
1891517 wang-nan.net 0 4607240 2011-08-17 22:44:26
1891518 wanforce.com 0 No Rank 2011-08-17 22:44:41
1891519 wanjia173.com 0 9851711 2011-09-12 15:14:17
1891520 wanhakauppahalli.com 5 2673533 2011-08-17 22:44:45
1891521 wanhua.com.cn 4 3728744 2011-08-17 22:44:53
1891522 wanimokko.jp 3 No Rank 2011-08-17 22:44:53
1891523 wangshaomin.com 2 No Rank 2011-08-17 22:44:54
1891524 wanpao.com 3 No Rank 2011-08-17 22:45:04
1891525 wannian.com.cn 3 4650127 2011-08-17 22:45:04
1891526 wannadrive.co.uk 0 No Rank 2011-08-17 22:45:12
1891527 wanndah.com 0 16924111 2011-08-17 22:45:15
1891528 cme.jp 0 9393855 2011-09-12 15:47:24
1891529 neutrogenaskinidreviews.com 0 No Rank 2011-08-17 22:45:22
1891530 wanlon.com 3 13968369 2011-09-12 15:43:48
1891531 wanodoo.fr 0 No Rank 2011-08-17 22:45:23
1891532 seobunny.com 3 5740705 2011-08-17 22:45:31
1891533 wanosato.com 3 6723406 2011-08-17 22:45:33
1891534 wanktank.com 0 No Rank 2011-08-17 22:45:33
1891535 vvr.be 2 11722681 2011-08-17 22:45:37
1891536 wannatag.com 0 No Rank 2011-08-17 22:45:42
1891537 zzz.at 4 7218561 2011-08-17 22:45:43
1891538 powersupplements.webs.com 2 No Rank 2011-08-17 22:45:45
1891539 wantrealdata.com 3 21172424 2011-08-17 22:45:50
1891540 homepager.tripod.set.music-software-review.com 0 1049361 2011-08-17 22:45:56
1891541 wany.com 0 8038425 2011-08-17 22:45:59
1891542 wantedtext.com 3 8655212 2011-08-17 22:46:01
1891543 wantjava.com 6 12838069 2011-08-17 22:46:02
1891544 wanwantuuhan.co.jp 2 9384207 2011-08-17 22:46:02
1891545 wao-corp.com 5 300174 2011-08-17 22:46:10
1891546 soc.cz 5 5788240 2011-08-17 22:46:24
1891547 wanware.com 4 12093753 2011-08-17 22:46:26
1891548 wanthemas.freehostia.com 0 7251 2011-09-19 10:24:18
1891549 wanxiang.com 4 3608143 2011-08-17 22:46:28
1891550 wap4.de 0 No Rank 2011-08-17 22:46:33
1891551 www4.cooking-questions.org 0 No Rank 2011-08-17 22:46:36
1891552 wap.marketlife.net 0 No Rank 2011-09-14 10:35:00
1891553 wap4bd.info 0 No Rank 2011-09-18 08:46:47
1891554 wap.fscomputer.net 0 No Rank 2011-09-11 23:37:25
1891555 wap.digitalpublications.net 0 No Rank 2011-09-12 20:59:53
1891556 wap.live-sport.ru 0 No Rank 2011-08-17 22:46:48
1891557 wap.alapage.com 0 73796 2011-09-12 05:38:13
1891558 waparty.com 3 3371591 2011-09-12 12:26:40
1891559 home.facebookloot.rickywattsonline.com 0 1622536 2011-08-17 22:47:01
1891560 zew.pl 3 No Rank 2011-08-17 22:47:02
1891561 waparquitectura.com 4 5697410 2011-08-17 22:47:03
1891562 wap.yahoo.com.au 5 4 2011-08-17 22:47:03
1891563 war-land.com 2 22236727 2011-08-17 22:47:18
1891564 wapclip.com 0 13250004 2011-09-12 14:11:44
1891565 waply.com 4 2588817 2011-08-17 22:47:32
1891566 war-tools.com 2 1425414 2011-08-17 22:47:33
1891567 war.tumeroks.com 2 26096254 2011-08-17 22:47:33
1891568 war3ft.net 4 12913909 2011-08-17 22:47:34
1891569 wapdj.com 3 8767615 2011-08-17 22:47:42
1891570 warbirdarchives.com 2 No Rank 2011-08-17 22:47:48
1891571 warbeast.com 0 No Rank 2011-08-17 22:47:49
1891572 magicwater.com.ru 1 939140 2011-08-17 22:47:52
1891573 war3xp.com 0 No Rank 2011-09-17 17:20:30
1891574 warcraft-maps.com 2 1998826 2011-08-17 22:48:05
1891575 warbirdsrestoration.com 4 10749197 2011-08-17 22:48:09
1891576 warandgame.wordpress.com 3 No Rank 2011-08-17 22:48:15
1891577 warehouse.gr 3 19243085 2011-08-17 22:48:30
1891578 wardkids.com 0 No Rank 2011-08-17 22:48:30
1891579 www2.facebookloot.rickywattsonline.com 0 1622536 2011-08-17 22:48:36
1891580 warcraftwiki.pl 2 4687639 2011-08-17 22:48:50
1891581 warehouseapp.com 0 2026728 2011-09-18 09:28:40
1891582 ware23.com 3 3672194 2011-08-17 22:48:58
1891583 0559.cn 4 832209 2011-08-17 22:49:01
1891584 apia.lt 0 5861985 2011-08-17 22:49:06
1891585 wardleworthfc.co.uk 0 No Rank 2011-08-17 22:49:06
1891586 amanofart.com 2 6185847 2011-08-17 22:49:06
1891587 warez101.com 0 No Rank 2011-08-17 22:49:07
1891588 5s9.com 0 No Rank 2011-09-18 10:52:09
1891589 warez-world.ws 0 No Rank 2011-08-17 22:49:11
1891590 3glifes.com 1 3186111 2011-08-17 22:49:15
1891591 warez-master.net 0 10258946 2011-08-17 22:49:15
1891592 warezboard.net 1 13977431 2011-08-17 22:49:19
1891593 us1shop.com 0 No Rank 2011-08-17 22:49:19
1891594 warezddls.com 0 24563610 2011-08-17 22:49:23
1891595 wares.cc 0 No Rank 2011-08-17 22:49:25
1891596 warezddl.net 1 3427550 2011-08-17 22:49:28
1891597 warez-porn.com 0 2028047 2011-08-17 22:49:33
1891598 warez.bb.org 3 5947869 2011-08-17 22:49:33
1891599 warezfuse.com 0 No Rank 2011-08-17 22:49:34
1891600 warehousing.freewebsites.com 0 220599 2011-08-17 22:49:35
1891601 wuta.nl 3 No Rank 2011-08-17 22:49:38
1891602 warezhack.com 0 6904725 2011-09-18 05:18:52
1891603 ccgq.ca 5 11489399 2011-08-17 22:49:43
1891604 buzz.pl 0 No Rank 2011-08-17 22:49:48
1891605 parkerphotographic.com 2 4842812 2011-08-17 22:49:53
1891606 warezteacher.com 0 12862013 2011-09-12 23:03:04
1891607 psfr.de 2 20284822 2011-08-17 22:49:59
1891608 warhammer40k.com 1 19458758 2011-08-17 22:50:04
1891609 warezzzz.ucoz.ru 0 170 2011-08-17 22:50:04
1891610 warezscene.com 0 3048873 2011-08-17 22:50:04
1891611 warezkill.com 0 No Rank 2011-08-17 22:50:06
1891612 warezseeker.com 0 18705758 2011-08-17 22:50:09
1891613 warezltd.net 0 12989170 2011-08-17 22:50:19
1891614 warisaracket.org 4 6068762 2011-08-17 22:50:24
1891615 wargamez.com.ar 1 311259 2011-08-17 22:50:24
1891616 warmasif.co.id 5 28788765 2011-08-17 22:50:26
1891617 warlockvideos.com 1 No Rank 2011-08-17 22:50:30
1891618 warlordrecords.com 0 No Rank 2011-08-17 22:50:31
1891619 warlu.com 6 12562131 2011-08-17 22:50:35
1891620 lchspets.org 2 12178208 2011-08-17 22:50:36
1891621 warmhearts.co.uk 2 1538430 2011-08-17 22:50:38
1891622 red1.in 0 No Rank 2011-08-17 22:50:38
1891623 warlordcycles.com 2 No Rank 2011-08-17 22:50:40
1891624 warmafloor.co.uk 4 6244633 2011-08-17 22:50:40
1891625 warmarks.com 5 344935 2011-08-17 22:50:45
1891626 warikiri.com 1 No Rank 2011-08-17 22:50:51
1891627 waringschool.org 4 13268097 2011-08-17 22:50:56
1891628 warmaniacs.cz 1 5019035 2011-08-17 22:50:57
1891629 warning-signs-diabetes.net 1 13162350 2011-08-17 22:51:07
1891630 penthouse-models.net.tc 0 No Rank 2011-08-17 22:51:09
1891631 warnet2.pl 2 7699782 2011-08-17 22:51:09
1891632 warn-winches.com 0 No Rank 2011-08-17 22:51:12
1891633 warnermusic.nl 4 13362958 2011-08-17 22:51:19
1891634 vinne.sk 3 3887767 2011-09-12 11:37:43
1891635 vinno.vn 4 1651349 2011-08-17 22:51:24
1891636 theux.be 6 6039640 2011-08-17 22:51:31
1891637 warmmisthumidifiers.net 0 No Rank 2011-08-17 22:51:36
1891638 warnwisconsin.org 4 No Rank 2011-08-17 22:51:36
1891639 warnermadrid.com 0 No Rank 2011-08-17 22:51:37
1891640 warnersauction.com 3 No Rank 2011-08-17 22:51:41
1891641 warrantybynet.net 0 No Rank 2011-09-12 01:10:16
1891642 warren-group.com 3 5954492 2011-08-17 22:51:50
1891643 xlnet.pl 1 No Rank 2011-08-17 22:51:53
1891644 clck.com 2 10394715 2011-08-17 22:52:02
1891645 warp-mtex.com 3 No Rank 2011-08-17 22:52:02
1891646 warqabad.com 4 No Rank 2011-08-17 22:52:17
1891647 warrenswatches.com 0 No Rank 2011-08-17 22:52:26
1891648 warrenlibrary.org 5 8304227 2011-08-17 22:52:30
1891649 de3l.com 3 No Rank 2011-08-17 22:52:30
1891650 warriar.com 3 8119822 2011-08-17 22:52:36
1891651 trattorialabaita.pl 0 No Rank 2011-08-17 22:52:37
1891652 etnik.pl 3 14095315 2011-08-17 22:52:43
1891653 wpri.org 5 2577046 2011-08-17 22:52:44
1891654 warrenimports.com 0 No Rank 2011-08-17 22:52:45
1891655 warringtonwolves.org 4 1334357 2011-08-17 22:52:47
1891656 facetutkunu.com 1 7860824 2011-08-17 22:52:56
1891657 mastersinarteducation.com 1 No Rank 2011-08-17 22:53:00
1891658 article.cooking-questions.org 0 No Rank 2011-08-17 22:53:17
1891659 wart.ro 5 2841553 2011-08-17 22:53:17
1891660 warrr.co.kr 1 11288982 2011-08-17 22:53:19
1891661 tax23.ru 4 6960956 2011-08-17 22:53:24
1891662 toronto.en.directoriolinks.info 0 2659159 2011-08-17 22:53:25
1891663 warsi.or.id 5 4760084 2011-08-17 22:53:31
1891664 warst.com 2 14566394 2011-08-17 22:53:33
1891665 televisionsamsung.info 1 No Rank 2011-08-17 22:53:42
1891666 was-jp.com 3 609340 2011-08-17 22:53:42
1891667 wartma.de 2 No Rank 2011-08-17 22:53:46
1891668 warrickcounty.gov 4 8972318 2011-08-17 22:53:47
1891669 maps.set.music-software-review.com 0 1049361 2011-08-17 22:53:51
1891670 sene.com 4 6001002 2011-08-17 22:53:55
1891671 warui.com 4 27508936 2011-09-12 13:15:12
1891672 warwickcc.org 4 5370515 2011-08-17 22:54:07
1891673 wimpfheimer.vassar.edu 4 78385 2011-08-17 22:54:11
1891674 wasabi-miyabi.com 0 No Rank 2011-08-17 22:54:11
1891675 d00901.com 0 No Rank 2011-08-17 22:54:11
1891676 wartibia.com 0 No Rank 2011-09-18 07:27:55
1891677 izor.com 5 No Rank 2011-08-17 22:54:21
1891678 wasaranch.com 3 No Rank 2011-08-17 22:54:23
1891679 wasabigirls.com 0 No Rank 2011-08-17 22:54:25
1891680 agisn.de 2 7019135 2011-08-17 22:54:29
1891681 ffoms.ru 5 874192 2011-08-17 22:54:29
1891682 wasbo.com 4 4035500 2011-08-17 22:54:31
1891683 washakiecounty.net 4 No Rank 2011-08-17 22:54:37
1891684 wasatchwings.com 3 No Rank 2011-08-17 22:54:41
1891685 washera.com 3 No Rank 2011-08-17 22:54:53
1891686 wasanbon.com 3 4251170 2011-08-17 22:54:53
1891687 wasabi.hu 4 943925 2011-08-17 22:54:55
1891688 washbasinwonders.com 2 3288111 2011-08-17 22:54:55
1891689 wasat.com 6 1929628 2011-08-17 22:54:56
1891690 21stcentury.cooking-questions.org 0 No Rank 2011-08-17 22:54:57
1891691 homepager.tripod.cooking-questions.org 0 No Rank 2011-08-17 22:54:57
1891692 music.cooking-questions.org 0 No Rank 2011-08-17 22:54:57
1891693 id2.cooking-questions.org 0 No Rank 2011-08-17 22:54:57
1891694 forex.cooking-questions.org 0 No Rank 2011-08-17 22:54:57
1891695 cxt.cooking-questions.org 0 No Rank 2011-08-17 22:54:57
1891696 toronto.en.cooking-questions.org 0 No Rank 2011-08-17 22:54:59
1891697 alangreene.cooking-questions.org 0 No Rank 2011-08-17 22:55:03
1891698 cavmen.home.cooking-questions.org 0 No Rank 2011-08-17 22:55:04
1891699 house.cooking-questions.org 0 No Rank 2011-08-17 22:55:04
1891700 games.cooking-questions.org 0 No Rank 2011-08-17 22:55:04
1891701 waseet.com 4 1436454 2011-08-17 22:55:04
1891702 go2.cooking-questions.org 0 No Rank 2011-08-17 22:55:04
1891703 job7.cooking-questions.org 0 No Rank 2011-08-17 22:55:05
1891704 shattered.cooking-questions.org 0 No Rank 2011-08-17 22:55:05
1891705 store1.cooking-questions.org 0 No Rank 2011-08-17 22:55:05
1891706 mightylib.cooking-questions.org 0 No Rank 2011-08-17 22:55:05
1891707 tu.cooking-questions.org 0 No Rank 2011-08-17 22:55:05
1891708 point.cooking-questions.org 0 No Rank 2011-08-17 22:55:05
1891709 wascoelectric.com 4 4360121 2011-08-17 22:55:06
1891710 women.cooking-questions.org 0 No Rank 2011-08-17 22:55:06
1891711 afpc.net 5 No Rank 2011-08-17 22:55:06
1891712 wasac.com 4 No Rank 2011-08-17 22:55:13
1891713 washington-lc.co.uk 2 2499458 2011-08-17 22:55:14
1891714 wasay.net 1 6920604 2011-09-15 10:42:30
1891715 washingtonbiotech.com 4 5936544 2011-08-17 22:55:25
1891716 washington.careerlink.com 0 108292 2011-08-17 22:55:29
1891717 wnlsd.ca 5 4517582 2011-08-17 22:55:33
1891718 winqgames.fullmov.hop.clickbank.net 0 649 2011-08-17 22:55:34
1891719 le456.ca 2 13571423 2011-08-17 22:55:35
1891720 vlci.com 0 No Rank 2011-09-14 13:11:38
1891721 washingtonliteracycouncil.org 4 5429097 2011-08-17 22:55:47
1891722 salsa.at 4 8235330 2011-08-17 22:55:48
1891723 abvt.org 5 10891799 2011-08-17 22:55:49
1891724 glhs.org 4 No Rank 2011-08-17 22:55:55
1891725 washingtoninsurance.biz 0 No Rank 2011-09-19 12:59:18
1891726 washingtonrealtor.mobi 0 No Rank 2011-08-17 22:56:01
1891727 washingtonmiddleschool.com 1 No Rank 2011-08-17 22:56:02
1891728 washingtonnationalgolfclub.com 4 542658 2011-08-17 22:56:09
1891729 washingtonprism.org 5 3056327 2011-08-17 22:56:09
1891730 pmsofohio.com 0 No Rank 2011-08-17 22:56:12
1891731 washman.biz 0 No Rank 2011-08-17 22:56:26
1891732 celebritynews.fyiag.com 0 No Rank 2011-08-17 22:56:31
1891733 wasserski.de 3 4255349 2011-08-17 22:56:34
1891734 washtech.com 6 No Rank 2011-08-17 22:56:36
1891735 wassenberg.de 4 4950257 2011-08-17 22:56:41
1891736 wasistgarage.de 5 1233768 2011-08-17 22:56:45
1891737 washoki.com 1 No Rank 2011-08-17 22:56:46
1891738 wasilkow.top-ogloszenia.net 1 122576 2011-09-19 02:42:26
1891739 watavue.com 1 No Rank 2011-08-17 22:56:59
1891740 svinus.be 4 10832001 2011-08-17 22:57:03
1891741 uptal.com 2 13833633 2011-08-17 22:57:04
1891742 watanabe-pile.jp 4 No Rank 2011-08-17 22:57:04
1891743 wata.org 5 No Rank 2011-08-17 22:57:06
1891744 watamu.net 3 4591592 2011-08-17 22:57:09
1891745 wasteyourdaysaway.com 4 7090973 2011-08-17 22:57:10
1891746 wat-thai.com 0 No Rank 2011-08-17 22:57:13
1891747 334.co.jp 4 1600583 2011-08-17 22:57:16
1891748 blog.set.music-software-review.com 0 1049361 2011-08-17 22:57:17
1891749 watanabe-dent.com 2 9691940 2011-08-17 22:57:24
1891750 makelifebetter-unicity-thailand.blogspot.com 0 No Rank 2011-08-17 22:57:24
1891751 waswirtun.de 4 11900521 2011-08-17 22:57:27
1891752 store1.set.music-software-review.com 0 1049361 2011-08-17 22:57:29
1891753 wasyokuken.com 4 9323342 2011-08-17 22:57:31
1891754 watase.jp 0 9231575 2011-08-17 22:57:31
1891755 wastereducer.com 0 19743208 2011-08-17 22:57:33
1891756 watarase.ne.jp 2 2585716 2011-09-18 10:52:58
1891757 adsblink.com 1 230846 2011-08-17 22:57:42
1891758 furuno.pl 4 11890272 2011-08-17 22:57:43
1891759 watch-all-moviez.blogspot.com 0 14253114 2011-08-17 22:57:46
1891760 watch2learn.in 0 No Rank 2011-08-17 22:57:51
1891761 watcharresteddevelopmentonline.info 0 No Rank 2011-08-17 22:57:52
1891762 watch-free-basketball-videos-online.info 0 No Rank 2011-08-17 22:57:53
1891763 watch-sports-live.com 0 24807330 2011-08-17 22:57:56
1891764 dphds.org 3 4236814 2011-09-19 16:07:36
1891765 ustsu.com 5 1316203 2011-08-17 22:58:09
1891766 watch-the-punisher-war-zone-online.oz6xe2.for-the.biz 0 298621 2011-08-17 22:58:12
1891767 gidc.comcastbiz.net 1 484507 2011-08-17 22:58:14
1891768 watch-greek.org 1 No Rank 2011-08-17 22:58:23
1891769 360cup.com 0 No Rank 2011-08-17 22:58:24
1891770 watch-glee.net 0 22710298 2011-09-17 11:48:33
1891771 watchesofdistinction.com 2 5149178 2011-08-17 22:58:28
1891772 memorysupplementsguide.com 0 No Rank 2011-08-17 22:58:31
1891773 watchbones.com 0 No Rank 2011-08-17 22:58:38
1891774 vnm.co.uk 5 No Rank 2011-08-17 22:58:41
1891775 watchen.tv 3 365176 2011-08-17 22:58:42
1891776 alanod.de 4 22783061 2011-08-17 22:58:43
1891777 watchfamilyguyepisodesfull.com 0 No Rank 2011-08-17 22:58:43
1891778 watchdog.us 2 24015963 2011-08-17 22:58:46
1891779 watchcommunity.info 0 16638619 2011-08-17 22:58:49
1891780 watchbattlestargalactica.net 0 No Rank 2011-08-17 22:58:49
1891781 watchdogs.com 2 20483673 2011-08-17 22:58:58
1891782 artap.com 4 No Rank 2011-08-17 22:59:00
1891783 watchjeffdunham.blogspot.com 0 No Rank 2011-08-17 22:59:10
1891784 watchgrammy.com 7 No Rank 2011-08-17 22:59:10
1891785 watchfreeepisodes.com 0 3265473 2011-08-17 22:59:11
1891786 watchlittlemosque.com 2 8477425 2011-08-17 22:59:12
1891787 watchfreemoviezonline.co.cc 0 24450681 2011-08-17 22:59:16
1891788 plusic.ro 0 9939296 2011-08-17 22:59:18
1891789 sebastianhallenius.com 2 No Rank 2011-08-17 22:59:19
1891790 watchmelita.info 0 No Rank 2011-08-17 22:59:20
1891791 watchfreeporn.tv 0 No Rank 2011-08-17 22:59:21
1891792 watchfireworks.com 7 No Rank 2011-08-17 22:59:22
1891793 watchlivetvonline.tv 0 No Rank 2011-08-17 22:59:22
1891794 watchfuleyedesigns.com 4 No Rank 2011-08-17 22:59:23
1891795 watchfringeonline.com 0 No Rank 2011-09-12 16:13:30
1891796 fenyx.com 3 No Rank 2011-08-17 22:59:26
1891797 watchgethimtothegreekonline.co.cc 0 No Rank 2011-09-12 06:06:35
1891798 watchfulllengthepisodes.org 0 18349222 2011-08-17 22:59:38
1891799 watchjeffdunhamshow.blogspot.com 0 No Rank 2011-08-17 22:59:42
1891800 watchlostseason6.com 1 12955012 2011-08-17 22:59:45
1891801 vip-tv.ru 3 628389 2011-08-17 22:59:49
1891802 watchmywoman.com 0 No Rank 2011-08-17 22:59:51
1891803 algulg.be 5 No Rank 2011-08-17 22:59:54
1891804 watchrepairsdirectltd.co.uk 0 No Rank 2011-09-10 12:08:54
1891805 watchtide.com 3 23839525 2011-08-17 22:59:57
1891806 watchtruebloddfree.co.cc 0 No Rank 2011-08-17 23:00:03
1891807 v-g.me.uk 3 3012008 2011-08-17 23:00:06
1891808 celebratingyoursuccess.com 0 No Rank 2011-08-17 23:00:10
1891809 watchoo.com 0 4679690 2011-09-19 16:50:17
1891810 watchthelword.com 1 No Rank 2011-08-17 23:00:13
1891811 watchpark.com 0 No Rank 2011-08-17 23:00:15
1891812 watchonlinecriminalminds.com 2 8314024 2011-08-17 23:00:17
1891813 watchmovieonlinefree.net 0 16446758 2011-09-16 23:50:50
1891814 music.set.music-software-review.com 0 1049361 2011-08-17 23:00:24
1891815 watchmore.net 0 19526801 2011-08-17 23:00:30
1891816 watchfulllengthmoviesforfree.info 0 4520974 2011-09-12 12:24:15
1891817 watchtvseriesforfree.info 0 No Rank 2011-08-17 23:00:37
1891818 water-factory.com 3 No Rank 2011-08-17 23:00:41
1891819 varad.org 4 9081465 2011-08-17 23:00:45
1891820 watchungarts.org 5 13323059 2011-08-17 23:00:50
1891821 music.directoriolinks.info 0 2659159 2011-08-17 23:00:55
1891822 pwant.com 2 7417722 2011-08-17 23:00:55
1891823 watchview-shop.de 0 No Rank 2011-08-17 23:00:56
1891824 watchungspringwater.com 3 No Rank 2011-08-17 23:00:57
1891825 watchtvsitcoms.com 0 408359 2011-08-17 23:01:00
1891826 water-sportz.com 0 No Rank 2011-08-17 23:01:01
1891827 watda.org 3 2480120 2011-08-17 23:01:04
1891828 wateen.com 4 112887 2011-08-17 23:01:09
1891829 watchwinterolympicgames.com 0 No Rank 2011-08-17 23:01:09
1891830 watchtvsitcom.com 0 No Rank 2011-08-17 23:01:13
1891831 virgil.at 6 4600691 2011-08-17 23:01:15
1891832 sv.org.pl 5 5716690 2011-08-17 23:01:16
1891833 watchussquirt.com 0 No Rank 2011-08-17 23:01:17
1891834 water-cooling.com 3 No Rank 2011-08-17 23:01:18
1891835 watchonetreehillonline.co.cc 1 16467565 2011-09-18 23:36:21
1891836 water.y8games.info 2 300418 2011-08-17 23:01:19
1891837 salzz.com 4 No Rank 2011-08-17 23:01:26
1891838 water.az.gov 6 35276 2011-08-17 23:01:27
1891839 unimed.in 0 16984377 2011-09-19 15:37:49
1891840 waterbury.ct.retail-stores.tel 0 No Rank 2011-08-17 23:01:31
1891841 seocafe.dk 0 No Rank 2011-08-17 23:01:42
1891842 waterbellfountain.info 0 No Rank 2011-08-17 23:01:43
1891843 uvnc.info 5 7796013 2011-08-17 23:01:48
1891844 waterbondage.fr 0 No Rank 2011-08-17 23:01:50
1891845 buycheappricebook.com 0 No Rank 2011-08-17 23:01:53
1891846 water2.ne.jp 3 No Rank 2011-08-17 23:01:55
1891847 waterfaucetfilter.com 0 No Rank 2011-08-17 23:01:56
1891848 waterfield.com 3 15335086 2011-08-17 23:02:01
1891849 watercoolerproducts.com 3 6359154 2011-09-09 19:49:21
1891850 waterfalls.com 2 329676 2011-08-17 23:02:07
1891851 dajet.com 0 No Rank 2011-08-17 23:02:16
1891852 maps.amberstone22.xanga.com 0 2732 2011-08-17 23:02:16
1891853 waterfordcountryschool.org 4 23251372 2011-08-17 23:02:21
1891854 uppcon.se 4 2144549 2011-08-17 23:02:23
1891855 waterfordfood.com 4 No Rank 2011-08-17 23:02:32
1891856 watergatehotel.com 0 9676395 2011-08-17 23:02:34
1891857 vcdla.com 0 11460031 2011-08-17 23:02:36
1891858 waterlawandstandards.org 5 26949282 2011-08-17 23:02:38
1891859 waterfrontnews.com 4 11902139 2011-08-17 23:02:41
1891860 waterlinestudios.com 1 No Rank 2011-08-17 23:02:42
1891861 waterhout.nl 3 15186621 2011-08-17 23:02:45
1891862 omgteaparty.com 1 No Rank 2011-08-17 23:02:47
1891863 innerdepths.co.uk 3 7998914 2011-08-17 23:02:47
1891864 water.gov.tw 6 542167 2011-09-19 19:31:57
1891865 english-engineering.com 0 No Rank 2011-08-17 23:02:52
1891866 waterionizer.com 0 15841536 2011-08-17 23:02:53
1891867 usfsb.com 4 3009200 2011-08-17 23:02:53
1891868 proheartratemonitor.com 0 No Rank 2011-08-17 23:03:01
1891869 waterfresh.net 1 No Rank 2011-08-17 23:03:07
1891870 v-r-a.org 0 3282706 2011-09-12 12:31:07
1891871 waterfrontweb.com 3 7836591 2011-08-17 23:03:16
1891872 waterpoloschool.com 3 28133062 2011-08-17 23:03:18
1891873 watermc.com 5 5912116 2011-08-17 23:03:18
1891874 pdnhf.org 5 No Rank 2011-08-17 23:03:19
1891875 watermunt.nl 0 No Rank 2011-08-17 23:03:20
1891876 waterram.nl 2 No Rank 2011-08-17 23:03:21
1891877 waterloomotors.com 3 No Rank 2011-08-17 23:03:32
1891878 wanhao.com 3 No Rank 2011-09-19 11:50:47
1891879 waterpolo.ca 5 3475698 2011-08-17 23:03:46
1891880 waterpurifier.in 0 21172454 2011-08-17 23:03:54
1891881 uspct.com 0 21959908 2011-08-17 23:04:01
1891882 watermerk.nl 2 15866091 2011-08-17 23:04:01
1891883 watersportguide.com 3 11566180 2011-08-17 23:04:01
1891884 watershuttle.co.jp 5 2881442 2011-08-17 23:04:02
1891885 waterstreetpub.com 1 4058350 2011-08-17 23:04:14
1891886 watersport-friesland.nl 4 13425431 2011-08-17 23:04:16
1891887 whowhere.set.music-software-review.com 0 1049361 2011-08-17 23:04:16
1891888 waterside-dub-club.co.uk 0 No Rank 2011-08-17 23:04:20
1891889 waterspirits.com 0 No Rank 2011-09-13 19:17:06
1891890 varka.org 4 7196996 2011-09-16 12:49:52
1891891 watersport.recreatief.nl 2 101553 2011-08-17 23:04:31
1891892 watford.tel 0 No Rank 2011-08-17 23:04:38
1891893 wcppa.org 4 No Rank 2011-08-17 23:04:41
1891894 betim.org 1 No Rank 2011-08-17 23:04:45
1891895 wathosp.org 4 No Rank 2011-08-17 23:04:46
1891896 waterways.org 5 14727423 2011-08-17 23:04:54
1891897 wsx23.com 0 No Rank 2011-08-17 23:05:02
1891898 bpunkt.de 1 11841675 2011-08-17 23:05:04
1891899 max.set.music-software-review.com 0 1049361 2011-08-17 23:05:07
1891900 watsoncrombie.com 2 25123955 2011-08-17 23:05:14
1891901 watsonpool.com 0 No Rank 2011-08-17 23:05:15
1891902 watson-mortgage.com 2 10355400 2011-08-17 23:05:19
1891903 watkinsproducts.com 0 No Rank 2011-08-17 23:05:23
1891904 logicaldecisions.ca 2 6918852 2011-08-17 23:05:27
1891905 watravelanddive.com 0 No Rank 2011-08-17 23:05:35
1891906 watsonville.ca.stained-glass.tel 0 No Rank 2011-08-17 23:05:42
1891907 watkins.com 4 23184235 2011-09-19 14:06:19
1891908 watyarn.com 4 5637781 2011-08-17 23:05:58
1891909 waudwrfuyq.eytonroad.com 0 No Rank 2011-08-17 23:06:01
1891910 vassp.org 4 20171798 2011-08-17 23:06:04
1891911 alangreene.directoriolinks.info 0 2659159 2011-08-17 23:06:06
1891912 varegg.no 3 13591135 2011-08-17 23:06:11
1891913 wattsind.com 5 No Rank 2011-08-17 23:06:18
1891914 waukegan.friendsearch.com 0 488905 2011-08-17 23:06:20
1891915 wattpic.com 4 8705544 2011-08-17 23:06:24
1891916 waveip.com 4 13424657 2011-08-17 23:06:28
1891917 news.anuntul-romanesc.ro.sg 0 No Rank 2011-08-17 23:06:30
1891918 wavecor.co.uk 4 3110719 2011-08-17 23:06:32
1891919 bayard.ru 2 No Rank 2011-08-17 23:06:38
1891920 wavcc.org 3 No Rank 2011-08-17 23:06:41
1891921 wave-nakano.co.jp 4 No Rank 2011-08-17 23:06:42
1891922 waves.com.cn 2 No Rank 2011-08-17 23:06:44
1891923 vavara.ru 0 7178958 2011-08-17 23:06:47
1891924 wave891.fm 4 938230 2011-08-17 23:06:50
1891925 amberstone22.xanga.com 0 2732 2011-08-17 23:06:55
1891926 vb-tec.de 3 2831847 2011-08-17 23:07:08
1891927 waveclubwatersports.com 3 2133751 2011-08-17 23:07:08
1891928 alternativepropertiessolutions.ca 1 26907285 2011-08-17 23:07:12
1891929 syssec.ch 0 13401488 2011-08-17 23:07:13
1891930 wavesight.com 3 15688476 2011-08-17 23:07:20
1891931 wav.ru 3 4092380 2011-08-17 23:07:20
1891932 vandan.vn 1 634463 2011-08-17 23:07:22
1891933 waveski.info 4 17247868 2011-08-17 23:07:22
1891934 wavhounds.com 3 8927502 2011-08-17 23:07:22
1891935 waveweb.co.jp 0 762914 2011-08-17 23:07:25
1891936 wawak.pl 2 14612992 2011-08-17 23:07:27
1891937 uydu.info 0 428520 2011-08-17 23:07:30
1891938 waxwear.com 3 4793473 2011-08-17 23:07:46
1891939 wawfl.com.au 3 No Rank 2011-08-17 23:07:50
1891940 wayfinding.net 4 4349804 2011-08-17 23:07:56
1891941 wawanesausa.com 0 23717543 2011-08-17 23:08:01
1891942 ushost.me 4 185694 2011-09-18 07:26:25
1891943 wayall.com 0 No Rank 2011-09-12 14:20:33
1891944 aridon.md 2 28573776 2011-08-17 23:08:06
1891945 waybig.net 3 No Rank 2011-08-17 23:08:21
1891946 way2vn.com 3 3109272 2011-08-17 23:08:23
1891947 wayneco.com 1 24563847 2011-08-17 23:08:28
1891948 wavo.com 5 25137982 2011-08-17 23:08:30
1891949 hamha.net 2 No Rank 2011-08-17 23:08:43
1891950 wayneford1.com 1 No Rank 2011-08-17 23:08:45
1891951 waynecountycommunitycollege.com 0 No Rank 2011-08-17 23:08:47
1891952 hostyn.cz 4 4455644 2011-08-17 23:08:53
1891953 waynecc.edu 6 531703 2011-08-17 23:08:59
1891954 sequinheadbands.cheapsale2u.com 0 No Rank 2011-08-17 23:09:00
1891955 vipss.net 3 328322 2011-08-17 23:09:03
1891956 salthillhotel.com 4 1723507 2011-08-17 23:09:06
1891957 wayoutmusic.com 0 No Rank 2011-09-19 16:00:31
1891958 waynesworld.tsx.org 0 27371758 2011-09-19 19:52:22
1891959 waynettaausmus.com 3 No Rank 2011-08-17 23:09:20
1891960 zombie.like.pl 0 726780 2011-08-17 23:09:21
1891961 wayprints.com 0 No Rank 2011-08-17 23:09:24
1891962 scottdsmith.co.uk 3 295584 2011-08-17 23:09:31
1891963 wayofprotection.com 0 No Rank 2011-08-17 23:09:37
1891964 wbassn.com 2 No Rank 2011-08-17 23:09:46
1891965 wbai.net 4 20445619 2011-08-17 23:09:47
1891966 waytopray.com 2 No Rank 2011-08-17 23:09:52
1891967 uuloo.com 4 5472897 2011-09-12 03:57:21
1891968 wbc.com 4 1087900 2011-08-17 23:10:00
1891969 ways.org 6 596771 2011-08-17 23:10:00
1891970 wband.com 4 434312 2011-08-17 23:10:07
1891971 wayway.idv.tw 3 3590405 2011-08-17 23:10:09
1891972 wb.com.tw 3 20198408 2011-08-17 23:10:11
1891973 uusem.com 5 112239 2011-08-17 23:10:12
1891974 wb26tv.com 4 No Rank 2011-08-17 23:10:12
1891975 wisweb.nl 5 4520608 2011-08-17 23:10:12
1891976 wbchamber.com 3 No Rank 2011-08-17 23:10:21
1891977 wb56.trb.com 0 3406 2011-09-18 12:53:03
1891978 waz.de 7 13360147 2011-08-17 23:10:23
1891979 v-win.net 2 1453998 2011-08-17 23:10:24
1891980 ku16.com 0 1507965 2011-08-17 23:10:29
1891981 wbji.com 3 No Rank 2011-08-17 23:10:36
1891982 wberc.org 5 No Rank 2011-08-17 23:10:41
1891983 wbfaa.org 4 No Rank 2011-08-17 23:10:42
1891984 wbgufm.com 4 4522800 2011-08-17 23:10:42
1891985 vipsat.pl 3 4156040 2011-08-17 23:10:47
1891986 wbez.com 7 62913 2011-08-17 23:10:54
1891987 wbf.co.nz 1 No Rank 2011-08-17 23:10:59
1891988 e-tipstricks.lalifetime.net 0 3254871 2011-08-17 23:11:00
1891989 showerdivertervalve.net 0 20521761 2011-08-17 23:11:02
1891990 wbfc78.org 4 No Rank 2011-08-17 23:11:05
1891991 wbix.com 0 No Rank 2011-08-17 23:11:05
1891992 nynco.com 4 No Rank 2011-08-17 23:11:06
1891993 wbkp.com 0 No Rank 2011-09-11 22:32:34
1891994 wbgtits.com 0 26411971 2011-08-17 23:11:10
1891995 rhbts.com 4 17391950 2011-08-17 23:11:12
1891996 wbln1018.worldbank.org 0 6276 2011-09-19 16:21:37
1891997 wbma.info 3 No Rank 2011-08-17 23:11:14
1891998 pipsa.org 4 No Rank 2011-08-17 23:11:15
1891999 vbirc.net 3 No Rank 2011-08-17 23:11:15